Weather in Marianske

Ukraine / Dnipropetrovsk Region     47°33′08″N   33°54′55″E
temp.,
°C
wind,
m/s
gust,
m/s
humid.,
%
clouds,
%
prec.,
mm/h
press.,
hPa
HPBL,
m
11 april, sun
sun1100:00+7n57565 0.0 102572
03:00+6n510635 0.0 1026152
06:00+5n59670 0.0 1026166
09:00+8nne610608 0.0 1027294
12:00+11ne79473 0.0 1025620
15:00+12ne7945100 0.0 1024683
18:00+12nne61049100 0.0 1023389
21:00+9n5961100 0.0 1024128
12 april, mon
mon1200:00+9n61061100 0.0 1023163
03:00+8n5968100 0.0 1022164
06:00+8nne4775100 0.2 1021211
09:00+8ne4777100 0.3 1021196
12:00+10ne2378100 0.0 1020240
15:00+9ssw3487100 0.6 102089
18:00+10sw3489100 0.9 101976
21:00+10ssw3490100 1.3 102077
13 april, tue
tue1300:00+9s348983 0.0 102071
03:00+9sse458990 0.0 102089
06:00+8sse3489100 0.0 102070
09:00+9sse3488100 0.0 1020176
12:00+10sse4582100 0.0 1021326
15:00+11sse3475100 0.0 1020412
18:00+11ese4580100 0.1 1020141
21:00+10se3586100 0.2 1020113
14 april, wed
wed1400:00+10sse3590100 0.1 1019112
03:00+9sse349290 0.1 101972
06:00+8se3490100 0.0 101886
09:00+9se348233 0.0 1018216
12:00+11sse247319 0.0 1017504
15:00+13s346185 0.0 1016744
18:00+13se246293 0.0 1015578
21:00+10se5979100 0.0 1016149
15 april, thu
thu1500:00+9se368958 0.0 1015108
03:00+8e4493100 0.0 101561
06:00+8ese458783 0.0 101478
09:00+9ese4580100 0.0 1014190
12:00+11ese5770100 0.0 1013464
15:00+12se5767100 0.0 1012497
18:00+9s5790100 0.4 1012273
21:00+9ssw3395100 3.2 1012149